#timestamp,LO_Frequency,Hit,StdDev 
1665648015.1,286047027.6,N
1665648016.0,286047027.6,N
1665648035.8,286047034.8,N
1665648055.7,286047033.6,N
1665648075.5,286047026.8,N
1665648095.4,286047020.6,N
1665648115.2,286047014.6,N
1665648135.0,286047006.7,N
1665648135.9,286047006.7,N
1665648155.8,286046999.8,N
1665648175.6,286046995.2,N
1665648195.5,286046990.8,N
1665648215.3,286046987.5,N
1665648235.1,286046985.0,N
1665648255.9,286046991.3,N
1665648275.7,286046990.4,N
1665648295.5,286046990.9,N
1665648315.4,286046996.6,N
1665648335.2,286047001.6,N
1665648355.1,286047012.1,N
1665648356.0,286047012.1,N
1665648375.8,286047015.0,N
1665648395.6,286047014.3,N
1665648415.5,286047012.9,N
1665648435.3,286047015.4,N
1665648455.1,286047010.7,N
1665648475.9,286047008.6,N
1665648495.7,286047008.9,N
1665648515.6,286047009.6,N
1665648535.4,286047012.2,N
1665648555.2,286047016.2,N
1665648575.1,286047017.6,N
1665648576.0,286047017.6,N
1665648595.8,286047020.4,N
1665648615.6,286047022.0,N
1665648635.5,286047015.8,N
1665648655.3,286047015.0,N
1665648675.2,286047014.8,N
1665648695.9,286047018.1,N
1665648715.7,286047015.1,N
1665648735.6,286047009.1,N
1665648755.4,286046999.7,N
1665648775.2,286046997.5,N
1665648795.1,286046994.1,N
1665648796.0,286046994.1,N
1665648815.8,286046990.7,N
1665648835.7,286046986.3,N
1665648855.5,286046984.1,N
1665648875.3,286046985.2,N
1665648895.2,286046979.4,N
1665648915.0,286046976.2,N
1665648915.9,286046976.2,N
1665648935.7,286046978.5,N
1665648955.6,286046984.7,N
1665648975.4,286046984.6,N
1665648995.3,286046983.1,N
1665649015.1,286046985.4,N
1665649016.0,286046985.4,N
1665649035.8,286046989.2,N
1665649055.7,286046991.3,N
1665649075.5,286046993.1,N
1665649095.3,286046990.5,N
1665649115.2,286046994.2,N
1665649135.0,286046997.6,N
1665649135.9,286046997.6,N
1665649155.8,286046995.7,N
1665649175.6,286046996.5,N
1665649195.4,286047003.6,N
1665649215.3,286047007.9,N
1665649235.1,286047012.7,N
1665649255.8,286047016.5,N
1665649275.7,286047020.3,N
1665649295.5,286047020.2,N
1665649315.4,286047022.0,N
1665649335.2,286047021.2,N
1665649355.0,286047021.9,N
1665649355.9,286047021.9,N
1665649375.8,286047020.2,N
1665649395.6,286047016.6,N
1665649415.4,286047005.7,N
1665649435.3,286046994.2,N
1665649455.1,286046993.1,N
1665649475.9,286046995.8,N
1665649495.7,286047002.4,N
1665649515.5,286047001.9,N
1665649535.4,286046999.5,N
1665649555.2,286046996.0,N
1665649575.0,286046992.8,N
1665649576.0,286046992.8,N
1665649595.8,286046986.9,N
1665649615.6,286046989.3,N
1665649635.5,286046989.4,N
1665649655.3,286046991.1,N
1665649675.1,286046989.8,N
1665649695.9,286046983.3,N
1665649715.7,286046977.9,N
1665649735.5,286046977.7,N
1665649755.4,286046981.1,N
1665649775.2,286046980.6,N
1665649795.1,286046976.3,N
1665649796.0,286046976.3,N
1665649815.8,286046971.0,N
1665649835.6,286046965.1,N
1665649855.5,286046963.5,N
1665649875.3,286046965.8,N
1665649895.1,286046963.7,N
1665649915.9,286046964.3,N
1665649935.7,286046962.4,N
1665649955.6,286046961.9,N
1665649975.4,286046961.6,N
1665649995.2,286046965.1,N
1665650015.1,286046964.0,N
1665650016.0,286046964.0,N
1665650035.8,286046962.3,N
1665650055.7,286046965.3,N
1665650075.5,286046966.7,N
1665650095.3,286046964.7,Y
1665650115.2,286046993.3,P
1665650135.9,286046994.0,N
1665650155.7,286046987.4,N
1665650175.6,286046983.8,N
1665650195.4,286046984.0,N
1665650215.2,286046987.9,N
1665650235.1,286046984.5,N
1665650236.0,286046984.5,N
1665650255.8,286046986.5,N
1665650275.7,286046985.4,N
1665650295.5,286046991.4,N
1665650315.3,286046985.7,N
1665650335.2,286046984.5,Y
1665650355.0,286046997.3,P
1665650355.9,286046997.3,N
1665650375.8,286046992.2,N
1665650395.6,286046991.5,N
1665650415.4,286046989.7,N
1665650435.3,286046991.1,N
1665650455.1,286046993.2,N
1665650475.8,286046990.3,N
1665650495.7,286046994.3,N
1665650515.5,286046994.6,N
1665650535.3,286046991.9,N
1665650555.2,286046992.0,N
1665650575.0,286046989.1,Y
1665650575.9,286046989.1,P
1665650595.8,286046995.4,N
1665650615.6,286047003.7,N
1665650635.4,286047008.8,N
1665650655.3,286047006.0,N
1665650675.1,286047002.8,N
1665650695.9,286046999.7,N
1665650715.7,286047003.9,N
1665650735.5,286047005.8,N
1665650755.4,286047003.0,N
1665650775.2,286047003.4,N
1665650795.0,286046998.5,N
1665650795.9,286046998.5,N
1665650815.8,286046994.2,N
1665650835.6,286046995.9,N
1665650855.5,286046990.9,N
1665650875.3,286046989.2,N
1665650925.2,286046995.2,E
1665650935.1,286046998.1,N
1665650936.0,286046998.1,P
1665650955.8,286047005.8,P
1665650975.7,286047009.1,N
1665650995.5,286047011.3,N
1665651015.3,286047017.0,Y
1665651035.2,286047014.4,P
1665651055.0,286047018.8,P
1665651055.9,286047018.8,P
1665651075.7,286047017.0,N
1665651095.6,286047011.4,N
1665651115.4,286047006.2,N
1665651135.6,286047004.4,N
1665651155.4,286047000.6,N
1665651175.3,286047001.4,N
1665651195.1,286047003.4,N
1665651215.8,286047002.0,N
1665651235.7,286046999.6,N
1665651255.5,286046996.2,N
1665651275.3,286046995.9,N
1665651295.2,286046993.9,N
1665651315.0,286046996.4,N
1665651315.9,286046996.4,N
1665651335.8,286046992.6,N
1665651355.6,286046992.5,N
1665651375.4,286046990.3,N
1665651395.3,286046990.4,N
1665651415.1,286046985.6,N
1665651435.8,286046986.2,N
1665651455.7,286046985.5,N
1665651475.5,286046986.0,N
1665651495.4,286046983.7,N
1665651515.2,286046981.4,N
1665651535.0,286046980.7,N
1665651535.9,286046980.7,N
1665651555.8,286046981.8,N
1665651575.6,286046978.4,N
1665651595.4,286046979.7,N
